AirNav   Jet Aviation Boston
 
 913 users online  

N06 Laurel Airport
Laurel, Delaware, USA

GOING TO LAUREL?


FAA INFORMATION EFFECTIVE 21 JUNE 2018

Location

FAA Identifier: N06
Lat/Long: 38-32-31.8640N / 075-35-39.6660W
38-32.531067N / 075-35.661100W
38.5421844 / -75.5943517
(estimated)
Elevation: 30.1 ft. / 9 m (estimated)
Variation: 12W (2000)
From city: 1 mile SW of LAUREL, DE
Time zone: UTC -4 (UTC -5 during Standard Time)
Zip code: 19956

Airport Operations

Airport use: Open to the public
Activation date: 12/1946
Control tower: no
ARTCC: WASHINGTON CENTER
FSS: MILLVILLE FLIGHT SERVICE STATION
NOTAMs facility: MIV (NOTAM-D service available)
Attendance: 0800-DUSK
Wind indicator: yes
Segmented circle: no
Lights: ACTVT LIRL - CTAF.
Beacon: white-green (lighted land airport)
ACTVT ROTG BCN - CTAF.

Airport Communications

CTAF/UNICOM: 122.8
PATUXENT APPROACH: 127.95
POTOMAC APPROACH: 127.2(WHEN NHK APCH CLSD)
PATUXENT DEPARTURE: 127.95
POTOMAC DEPARTURE: 127.2(WHEN NHK APCH CLSD)
WX ASOS at SBY (13 nm S): 118.325 (410-341-0868)
WX ASOS at GED (14 nm NE): 118.375 (302-856-2927)
  • APCH/DEP SVC PRVDD BY POTOMAC TRACON ON 127.2/281.47 WHEN PATUXENT APCH CTL CLSD.

Nearby radio navigation aids

VOR radial/distance  VOR name  Freq  Var
SBYr354/12.5SALISBURY VORTAC111.2012W
ATRr237/24.1WATERLOO VOR/DME112.6009W
SWLr356/29.8SNOW HILL VORTAC112.4008W

 
NDB name  Hdg/Dist  Freq  Var  ID
CAMBRIDGE099/20.535510WCGE -.-. --. .

Airport Services

Parking: hangars and tiedowns
Airframe service: MAJOR
Powerplant service: MAJOR
Bottled oxygen: NONE
Bulk oxygen: NONE

Runway Information

Runway 15/33

Dimensions: 3175 x 270 ft. / 968 x 82 m
Surface: turf, in good condition
Runway edge lights: low intensity
Runway edge markings: DSPLCD THLD MKD WITH 3 LARGE ORANGE CONES EACH SIDE.
RUNWAY 15  RUNWAY 33
Latitude: 38-32.730683N38-32.351717N
Longitude: 075-35.874700W075-35.415167W
Elevation: 28.9 ft.30.1 ft.
Gradient: 0.3%0.3%
Traffic pattern: leftleft
Runway heading: 148 magnetic, 136 true328 magnetic, 316 true
Displaced threshold: no270 ft.
Runway end identifier lights: nono
Touchdown point: yes, no lightsyes, no lights
Obstructions: 55 ft. trees, 140 ft. from runway, 60 ft. right of centerline, 2:1 slope to clear53 ft. tree, 10 ft. from runway, 167 ft. right of centerline, 1:1 slope to clear
RWY 33 APCH SLOPE 20:1 TO DSPLCD THLD.

Airport Ownership and Management from official FAA records

Ownership: Privately-owned
Owner: DEST INC
106 STUART DRIVE
DOVER, DE 19901
Phone 302-697-6020
DONNA ATKINS
Manager: ROB COLLINS
32524 AERO DRIVE
LAUREL, DE 19956
Phone (302) 542-4110

Airport Operational Statistics

Aircraft based on the field: 14
Single engine airplanes: 13
Multi engine airplanes: 1
    
Aircraft operations: avg 27/day *
81% local general aviation
19% transient general aviation
* for 12-month period ending 30 November 2014

Additional Remarks

SIGNIFICANT SKY DIVING OPS ALL BUT WINTER MONTHS.
FOR CD WHEN NHK APCH IS CLSD CTC POTOMAC APCH AT 866-640-4124.

Instrument Procedures

NOTE: All procedures below are presented as PDF files. If you need a reader for these files, you should download the free Adobe Reader.

NOT FOR NAVIGATION. Please procure official charts for flight.
FAA instrument procedures published for use from 21 June 2018 at 0901Z to 19 July 2018 at 0900Z.

 
IAPs - Instrument Approach Procedures
RNAV (GPS)-A **CHANGED**   download (152KB)
NOTE: Special Take-Off Minimums/Departure Procedures apply   download (140KB)

Other nearby airports with instrument procedures:

KSBY - Salisbury-Ocean City Wicomico Regional Airport (13 nm S)
KGED - Delaware Coastal Airport (14 nm NE)
KCGE - Cambridge-Dorchester Regional Airport (20 nm W)
KOXB - Ocean City Municipal Airport (26 nm SE)
KESN - Easton/Newnam Field Airport (27 nm NW)
 
Loc | Ops | Rwys | IFR | FBO | Links
Com | Nav | Svcs | Stats | Notes

AirNav Hotels Sweepstakes
 
Area around N06 (Laurel Airport)
 
Road maps at: MapQuest Bing Google
 
Aerial photo
WARNING: Photo may not be current or correct
Aerial photo of N06 (Laurel Airport)
Photo taken 21-Jul-2006

Do you have a better or more recent aerial photo of Laurel Airport that you would like to share? If so, please send us your photo.

 
Sectional chart

 
Airport distance calculator
Flying to Laurel Airport? Find the distance to fly.

From to N06

Sunrise and sunset
Times for 22-Jun-2018
 Local
(UTC-4)
 Zulu
(UTC)
Morning civil twilight05:0809:08
Sunrise05:4009:40
Sunset20:2900:29
Evening civil twilight21:0101:01

Current date and time
Zulu (UTC)  23-Jun-2018 02:30:30
Local (UTC-4)  22-Jun-2018 22:30:30
 
METAR
KSBY 
13nm S 
230208Z 08009KT 10SM BKN010 OVC017 21/20 A2987 RMK AO2 CIG 009V014 T02110200
KGED 
14nm NE 
230154Z AUTO 09008KT 10SM OVC007 20/19 A2991 RMK AO2 SLP127 T02000194
KCGE 
20nm W 
230215Z AUTO 06007KT 6SM BR OVC007 20/20 A2988 RMK A01
KOXB 
26nm SE 
230217Z AUTO 07008G17KT 10SM OVC010 21/20 A2988 RMK AO2 CIG 007V014 T02060200
TAF
KSBY 
13nm S 
222358Z 2300/2324 08012KT P6SM VCSH OVC009 FM230300 10008KT 4SM -SHRA BR OVC008 FM230900 12006KT 4SM BR BKN006 FM231300 18005KT P6SM BKN025 FM231600 20008KT P6SM SCT040 FM232000 20009KT P6SM VCSH SCT040
NOTAMs
Click for the latest NOTAMs
NOTAMs are issued by the DoD/FAA and will open in a separate window not controlled by AirNav.

 

 
 

Would you like to see your business listed on this page?

 If your business provides an interesting product or service to pilots, flight crews, aircraft, or users of the Laurel Airport, you should consider listing it here.  To start the listing process, click on the button below
 
Add a business
 

Other Pages about Laurel Airport

Update a link
 
Copyright © AirNav, LLC. All rights reserved. Privacy Policy  Contact